Auburn, ME

3:19 AM EST on December 10, 2016 (GMT -0500)
Auburn-Lewiston Municipal

Weather History for KLEW - July, 2013

Change the Weather History Date:

Tuesday, July 23, 2013

  Actual Average Record
Temperature  
Mean Temperature 64 °F -  
Max Temperature 68 °F 75 °F 91 °F (2002)
Min Temperature 59 °F 55 °F 46 °F (1997)
Degree Days  
Heating Degree Days 2    
Growing Degree Days 14 (Base 50)    
Moisture  
Dew Point 61 °F    
Average Humidity 92    
Maximum Humidity 100    
Minimum Humidity 83    
Precipitation  
Precipitation 1.61 in - - ()
Sea Level Pressure  
Sea Level Pressure 29.71 in    
Wind  
Wind Speed 3 mph (North)    
Max Wind Speed 9 mph    
Max Gust Speed -    
Visibility 9 miles    
Events      
Averages and records for this station are not official NWS values.
T = Trace of Precipitation, MM = Missing Value Source: NWS Daily Summary

Daily Weather History Graph

Daily Weather History Graph

Search for Another Location

Airport or City:

Trip Planner

Search our weather history database for the weather conditions in past years. The results will help you decide how hot, cold, wet, or windy it might be!

Date:

Astronomy

Jul. 23, 2013 Rise Set
Actual Time 5:19 AM EDT 8:14 PM EDT
Civil Twilight 4:45 AM EDT 8:48 PM EDT
Nautical Twilight 4:02 AM EDT 9:31 PM EDT
Astronomical Twilight 3:11 AM EDT 10:22 PM EDT
Moon 8:34 PM EDT (7/23) 6:28 AM EDT (7/23)
Length of Visible Light 16h 02m
Length of Day
14h 54m
Full, 99% of the Moon is Illuminated
Jul 23
Full
Jul 29
Last Quarter
Aug 6
New
Aug 14
First Quarter
Aug 20
Full

Hourly Weather History & Observations

Time (EDT) Temp. Dew Point Humidity Pressure Visibility Wind Dir Wind Speed Gust Speed Precip Events Conditions
12:35 AM 59.0 °F 57.2 °F 94% 29.93 in 10.0 mi Calm Calm - N/A   Clear
12:55 AM 59.0 °F 57.2 °F 94% 29.92 in 10.0 mi Calm Calm - N/A   Clear
1:15 AM 59.0 °F 57.2 °F 94% 29.91 in 10.0 mi Calm Calm - N/A   Clear
1:35 AM 59.0 °F 57.2 °F 94% 29.91 in 10.0 mi Calm Calm - N/A   Partly Cloudy
1:55 AM 59.0 °F 57.2 °F 94% 29.90 in 10.0 mi Calm Calm - N/A   Clear
2:15 AM 60.8 °F 57.2 °F 88% 29.89 in 10.0 mi Calm Calm - N/A   Mostly Cloudy
2:35 AM 60.8 °F 57.2 °F 88% 29.89 in 10.0 mi Calm Calm - N/A   Overcast
2:55 AM 60.8 °F 57.2 °F 88% 29.88 in 10.0 mi Calm Calm - N/A   Overcast
3:15 AM 60.8 °F 59.0 °F 94% 29.88 in 10.0 mi Calm Calm - N/A   Overcast
3:35 AM 60.8 °F 57.2 °F 88% 29.87 in 10.0 mi NNE 3.5 mph - N/A   Overcast
3:56 AM 60.8 °F 57.2 °F 88% 29.86 in 10.0 mi Calm Calm - N/A   Overcast
4:15 AM 60.8 °F 57.2 °F 88% 29.85 in 10.0 mi NNE 4.6 mph - N/A   Overcast
4:35 AM 60.8 °F 57.2 °F 88% 29.84 in 10.0 mi NE 3.5 mph - N/A   Overcast
4:55 AM 60.8 °F 59.0 °F 94% 29.84 in 10.0 mi North 3.5 mph - N/A   Overcast
5:15 AM 60.8 °F 59.0 °F 94% 29.83 in 10.0 mi North 5.8 mph - N/A   Overcast
5:35 AM 60.8 °F 59.0 °F 94% 29.82 in 10.0 mi NNE 5.8 mph - N/A   Overcast
5:55 AM 60.8 °F 59.0 °F 94% 29.81 in 10.0 mi NNE 4.6 mph - 0.05 in   Overcast
6:15 AM 60.8 °F 59.0 °F 94% 29.80 in 9.0 mi NNE 8.1 mph - 0.02 in   Overcast
6:35 AM 60.8 °F 59.0 °F 94% 29.80 in 7.0 mi North 4.6 mph - 0.05 in   Overcast
6:55 AM 60.8 °F 59.0 °F 94% 29.80 in 3.0 mi North 3.5 mph - 0.17 in   Overcast
7:15 AM 60.8 °F 59.0 °F 94% 29.78 in 6.0 mi NNE 8.1 mph - 0.26 in   Overcast
7:35 AM 60.8 °F 59.0 °F 94% 29.77 in 5.0 mi NNE 4.6 mph - 0.44 in   Overcast
7:55 AM 60.8 °F 59.0 °F 94% 29.77 in 9.0 mi North 4.6 mph - 0.59 in   Overcast
8:15 AM 60.8 °F 60.8 °F 100% 29.76 in 5.0 mi NNE 5.8 mph - 0.21 in   Overcast
8:35 AM 60.8 °F 60.8 °F 100% 29.75 in 10.0 mi North 5.8 mph - 0.39 in   Overcast
8:55 AM 60.8 °F 60.8 °F 100% 29.74 in 10.0 mi NNE 8.1 mph - 0.45 in   Overcast
9:15 AM 60.8 °F 60.8 °F 100% 29.72 in 10.0 mi NNE 9.2 mph - 0.03 in   Overcast
9:35 AM 60.8 °F 60.8 °F 100% 29.71 in 10.0 mi NNE 6.9 mph - 0.04 in   Overcast
9:55 AM 60.8 °F 60.8 °F 100% 29.72 in 5.0 mi WNW 5.8 mph - 0.12 in   Overcast
10:15 AM 60.8 °F 59.0 °F 94% 29.71 in 10.0 mi NNW 4.6 mph - 0.11 in   Overcast
10:35 AM 60.8 °F 60.8 °F 100% 29.70 in 10.0 mi NNW 8.1 mph - 0.12 in   Overcast
10:55 AM 60.8 °F 59.0 °F 94% 29.70 in 9.0 mi NNW 5.8 mph - 0.13 in   Overcast
11:15 AM 62.6 °F 60.8 °F 94% 29.69 in 9.0 mi NNW 5.8 mph - N/A   Overcast
11:35 AM 62.6 °F 60.8 °F 94% 29.68 in 10.0 mi NNE 6.9 mph - 0.01 in   Overcast
11:55 AM 62.6 °F 60.8 °F 94% 29.67 in 10.0 mi North 9.2 mph - 0.01 in   Overcast
12:15 PM 62.6 °F 60.8 °F 94% 29.66 in 8.0 mi NE 4.6 mph - 0.06 in   Overcast
12:35 PM 64.4 °F 60.8 °F 88% 29.65 in 10.0 mi NE 3.5 mph - 0.09 in   Overcast
12:56 PM 64.4 °F 62.6 °F 94% 29.64 in 10.0 mi NNE 6.9 mph - N/A   Overcast
1:15 PM 64.4 °F 62.6 °F 94% 29.64 in 10.0 mi NNE 5.8 mph - N/A   Overcast
1:35 PM 64.4 °F 62.6 °F 94% 29.63 in 10.0 mi North 4.6 mph - N/A   Overcast
1:55 PM 64.4 °F 62.6 °F 94% 29.62 in 10.0 mi North 4.6 mph - N/A   Overcast
2:15 PM 64.4 °F 62.6 °F 94% 29.62 in 10.0 mi North 4.6 mph - N/A   Overcast
2:35 PM 66.2 °F 62.6 °F 88% 29.61 in 10.0 mi NNW 6.9 mph - N/A   Overcast
2:55 PM 66.2 °F 62.6 °F 88% 29.61 in 10.0 mi NNE 5.8 mph - N/A   Overcast
3:15 PM 66.2 °F 62.6 °F 88% 29.60 in 10.0 mi NNE 4.6 mph - N/A   Overcast
3:35 PM 66.2 °F 62.6 °F 88% 29.59 in 10.0 mi North 6.9 mph - N/A   Overcast
3:55 PM 66.2 °F 62.6 °F 88% 29.59 in 10.0 mi North 5.8 mph - N/A   Overcast
4:15 PM 68.0 °F 64.4 °F 88% 29.58 in 10.0 mi NE 5.8 mph - N/A   Overcast
4:35 PM 68.0 °F 64.4 °F 88% 29.58 in 10.0 mi NNE 5.8 mph - N/A   Overcast
4:55 PM - - N/A% 29.58 in 10.0 mi North 6.9 mph - N/A   Overcast
5:15 PM - - N/A% 29.57 in 10.0 mi North 8.1 mph - N/A   Overcast
5:35 PM 68.0 °F 62.6 °F 83% 29.57 in 10.0 mi North 8.1 mph - N/A   Overcast
5:55 PM 68.0 °F 62.6 °F 83% 29.56 in 10.0 mi North 8.1 mph - N/A   Overcast
6:16 PM 68.0 °F 62.6 °F 83% 29.56 in 10.0 mi North 3.5 mph - N/A   Overcast
6:35 PM 68.0 °F 62.6 °F 83% 29.57 in 10.0 mi NW 4.6 mph - N/A   Overcast
6:55 PM 68.0 °F 64.4 °F 88% 29.57 in 8.0 mi NW 5.8 mph - N/A   Overcast
7:15 PM 68.0 °F 64.4 °F 88% 29.57 in 10.0 mi NNW 4.6 mph - N/A   Overcast
7:35 PM 68.0 °F 64.4 °F 88% 29.57 in 10.0 mi Calm Calm - N/A   Mostly Cloudy
7:55 PM 68.0 °F 64.4 °F 88% 29.58 in 10.0 mi NNW 3.5 mph - N/A   Mostly Cloudy
8:15 PM 68.0 °F 64.4 °F 88% 29.58 in 10.0 mi Calm Calm - N/A   Overcast
8:35 PM 66.2 °F 64.4 °F 94% 29.58 in 10.0 mi Calm Calm - N/A   Scattered Clouds
8:55 PM 66.2 °F 64.4 °F 94% 29.58 in 10.0 mi Calm Calm - N/A   Clear
9:15 PM 66.2 °F 64.4 °F 94% 29.59 in 10.0 mi WNW 3.5 mph - N/A   Clear
9:35 PM 64.4 °F 62.6 °F 94% 29.59 in 10.0 mi Calm Calm - N/A   Clear